Memphis, TN

9:17 PM CDT on August 30, 2016 (GMT -0500)
Memphis International

Weather History for KMEM - April, 2013

Change the Weather History Date:

Friday, April 19, 2013

  Actual Average Record
Temperature  
Mean Temperature 50 °F 64 °F  
Max Temperature 56 °F 74 °F 89 °F (2006)
Min Temperature 43 °F 54 °F 33 °F (1953)
Degree Days  
Heating Degree Days 15 4  
Month to date heating degree days 122 108  
Since 1 July heating degree days 2826 2916  
Cooling Degree Days 0 3  
Month to date cooling degree days 55 39  
Year to date cooling degree days 66 59  
Moisture  
Dew Point 33 °F    
Average Humidity 56    
Maximum Humidity 70    
Minimum Humidity 41    
Precipitation  
Precipitation 0.00 in 0.19 in 3.26 in (1894)
Month to date precipitation 5.38 3.45  
Year to date precipitation 22.33 16.98  
Snow  
Snow 0.00 in 0.00 in - ()
Month to date snowfall 0.0 0.0  
Since 1 July snowfall 0.9 3.8  
Snow Depth 0.00 in    
Sea Level Pressure  
Sea Level Pressure 30.02 in    
Wind  
Wind Speed 11 mph (WNW)    
Max Wind Speed 23 mph    
Max Gust Speed 31 mph    
Visibility 10 miles    
Events      
T = Trace of Precipitation, MM = Missing Value Source: NWS Daily Summary

Daily Weather History Graph

Daily Weather History Graph

Search for Another Location

Airport or City:

Trip Planner

Search our weather history database for the weather conditions in past years. The results will help you decide how hot, cold, wet, or windy it might be!

Date:

Astronomy

Apr. 19, 2013 Rise Set
Actual Time 6:22 AM CDT 7:35 PM CDT
Civil Twilight 5:56 AM CDT 8:02 PM CDT
Nautical Twilight 5:24 AM CDT 8:33 PM CDT
Astronomical Twilight 4:52 AM CDT 9:06 PM CDT
Moon 1:34 PM CDT (4/19) 2:23 AM CDT (4/19)
Length of Visible Light 14h 06m
Length of Day
13h 13m
First Quarter, 62% of the Moon is Illuminated
Apr 19
First Quarter
Apr 25
Full
May 2
Last Quarter
May 9
New
May 17
First Quarter

Hourly Weather History & Observations

Time (CDT) Temp. Windchill Dew Point Humidity Pressure Visibility Wind Dir Wind Speed Gust Speed Precip Events Conditions
12:54 AM 46.0 °F 39.9 °F 37.9 °F 73% 29.87 in 10.0 mi WNW 13.8 mph 25.3 mph 0.00 in   Overcast
1:48 AM 46.4 °F 39.8 °F 35.6 °F 66% 29.90 in 10.0 mi WNW 16.1 mph 26.5 mph N/A   Overcast
1:54 AM 46.0 °F 39.3 °F 35.1 °F 66% 29.89 in 10.0 mi WNW 16.1 mph 26.5 mph N/A   Mostly Cloudy
2:54 AM 45.0 °F 37.9 °F 34.0 °F 65% 29.89 in 10.0 mi NW 16.1 mph 26.5 mph N/A   Overcast
3:54 AM 45.0 °F 37.9 °F 33.1 °F 63% 29.91 in 10.0 mi WNW 16.1 mph 23.0 mph N/A   Overcast
4:54 AM 45.0 °F 39.7 °F 33.1 °F 63% 29.92 in 10.0 mi NW 10.4 mph - N/A   Overcast
5:54 AM 45.0 °F 38.9 °F 32.0 °F 60% 29.95 in 10.0 mi WNW 12.7 mph 19.6 mph N/A   Overcast
6:54 AM 45.0 °F 39.7 °F 32.0 °F 60% 29.99 in 10.0 mi WNW 10.4 mph - N/A   Overcast
7:48 AM 44.6 °F 37.2 °F 32.0 °F 61% 30.01 in 10.0 mi West 17.3 mph 24.2 mph N/A   Overcast
7:54 AM 45.0 °F 37.6 °F 30.9 °F 58% 30.01 in 10.0 mi WNW 17.3 mph 24.2 mph N/A   Overcast
8:39 AM 44.6 °F 38.8 °F 30.2 °F 57% 30.00 in 10.0 mi NW 11.5 mph 24.2 mph N/A   Overcast
8:47 AM 44.6 °F 37.4 °F 30.2 °F 57% 30.00 in 10.0 mi NW 16.1 mph 25.3 mph N/A   Overcast
8:54 AM 45.0 °F 38.9 °F 32.0 °F 60% 30.01 in 10.0 mi NW 12.7 mph - N/A   Overcast
9:54 AM 44.1 °F 36.5 °F 28.9 °F 55% 30.04 in 10.0 mi NW 17.3 mph 25.3 mph N/A   Overcast
10:54 AM 46.0 °F 39.3 °F 28.9 °F 51% 30.08 in 10.0 mi WNW 16.1 mph 21.9 mph N/A   Overcast
11:54 AM 48.0 °F - 30.0 °F 50% 30.06 in 10.0 mi WNW 13.8 mph - N/A   Mostly Cloudy
12:54 PM 50.0 °F - 32.0 °F 50% 30.06 in 10.0 mi WNW 10.4 mph 18.4 mph N/A   Mostly Cloudy
1:54 PM 53.1 °F - 34.0 °F 48% 30.06 in 10.0 mi WNW 12.7 mph 19.6 mph N/A   Mostly Cloudy
2:54 PM 52.0 °F - 33.1 °F 49% 30.06 in 10.0 mi WNW 12.7 mph - N/A   Mostly Cloudy
3:54 PM 55.0 °F - 34.0 °F 45% 30.05 in 10.0 mi WSW 8.1 mph - N/A   Mostly Cloudy
4:54 PM 55.0 °F - 32.0 °F 42% 30.05 in 10.0 mi West 15.0 mph 24.2 mph N/A   Scattered Clouds
5:54 PM 55.0 °F - 32.0 °F 42% 30.06 in 10.0 mi WNW 11.5 mph - N/A   Partly Cloudy
6:54 PM 54.0 °F - 30.9 °F 41% 30.07 in 10.0 mi West 9.2 mph - N/A   Partly Cloudy
7:54 PM 51.1 °F - 30.9 °F 46% 30.09 in 10.0 mi WSW 3.5 mph - N/A   Clear
8:54 PM 48.9 °F - 33.1 °F 54% 30.11 in 10.0 mi SSW 3.5 mph - N/A   Clear
9:54 PM 45.0 °F 42.6 °F 35.1 °F 68% 30.14 in 10.0 mi SSW 4.6 mph - N/A   Clear
10:54 PM 46.0 °F - 36.0 °F 68% 30.14 in 10.0 mi Calm Calm - N/A   Clear
11:54 PM 44.1 °F 41.5 °F 36.0 °F 73% 30.15 in 10.0 mi SW 4.6 mph - N/A   Clear